[Iaude] MPEC M06: 2024 LR5 [a=1.44,e=0.29,i=7.2,H=28.3]

mpec at cfa.harvard.edu mpec at cfa.harvard.edu
Sun Jun 16 07:58:46 EDT 2024


M.P.E.C. 2024-M06                                 Issued 2024 June 16, 11:57 UT

     The Minor Planet Electronic Circulars contain information on unusual
         minor planets, routine data on comets and natural satellites,
         and occasional editorial announcements.  They are published
    on behalf of Division F of the International Astronomical Union by the
          Minor Planet Center, Smithsonian Astrophysical Observatory,
                          Cambridge, MA 02138, U.S.A.
			  
             Prepared using the Tamkin Foundation Computer Network

                              MPC at CFA.HARVARD.EDU
            URL https://www.minorplanetcenter.net/    ISSN 1523-6714

                                    2024 LR5                                    


Observations:
     K24L05R*1C2024 06 15.31265216 52 10.440+25 16 29.00         20.50GVEM006G96
     K24L05R 1C2024 06 15.31830316 52 28.070+25 20 39.30               VEM006G96
     K24L05R 1C2024 06 15.32396316 52 45.820+25 24 50.30               VEM006G96
     K24L05R KC2024 06 15.34605516 53 55.950+25 41 11.22         20.10GVEM006I52
     K24L05R KC2024 06 15.34855616 54 03.888+25 43 01.06         20.28GVEM006I52
     K24L05R KC2024 06 15.35106816 54 11.876+25 44 51.83         20.13GVEM006I52
     K24L05R KC2024 06 15.35357116 54 19.825+25 46 40.94         19.90GVEM006I52
     K24L05R KC2024 06 15.40135316 56 53.100+26 21 08.70         19.86GVEM006I52
     K24L05R KC2024 06 15.40381616 57 01.100+26 22 53.60         20.12GVEM006I52
     K24L05R KC2024 06 15.40627816 57 09.060+26 24 39.00         19.79GVEM006I52
     K24L05R KC2024 06 15.40874816 57 17.110+26 26 23.30         19.84GVEM006I52
     K24L05R KC2024 06 16.16239917 41 52.64 +34 27 57.6          21.4 GVEM006H21
     K24L05R KC2024 06 16.16521617 42 01.52 +34 29 32.3          20.8 GVEM006H21
     K24L05R KC2024 06 16.16803317 42 10.42 +34 31 06.7          20.6 GVEM006H21
     K24L05R KC2024 06 16.17085017 42 19.34 +34 32 41.1          20.7 GVEM006H21
     K24L05R KC2024 06 16.17338517 42 27.36 +34 34 05.8          20.6 GVEM006H21
     K24L05R KC2024 06 16.19516417 43 55.271+34 46 24.16         19.9 GVEM006I52
     K24L05R KC2024 06 16.19676217 44 00.415+34 47 18.18         20.9 GVEM006I52
     K24L05R KC2024 06 16.19826717 44 05.114+34 48 08.45         20.2 GVEM006I52
     K24L05R KC2024 06 16.26296017 47 22.90 +35 22 56.7          20.4 GXEM006858
     K24L05R KC2024 06 16.26967817 47 43.69 +35 26 28.4          19.8 GXEM006858
     K24L05R KC2024 06 16.27667617 48 05.29 +35 30 07.5          20.7 GXEM006858
     K24L05R KC2024 06 16.28361217 48 26.63 +35 33 43.8          20.4 GXEM006858

Observer details:
858 Tebbutt Observatory, Edgewood.  Observer F. B. Zoltowski.  0.51-m f/8.1
    Schmidt-Cassegrain + CCD.
G96 Mt. Lemmon Survey.  Observer D. Rankin.  Measurers T. Beuden, V. F.
    Carvajal, D. Fay, J. B. Fazekas, D. C. Fuls, A. R. Gibbs, A. D. Grauer, H.
    Groeller, J. K. Hogan, R. A. Kowalski, S. M. Larson, G. J. Leonard, D.
    Rankin, R. L. Seaman, F. C. Shelly, K. W. Wierzchos.  1.5-m reflector +
    10K CCD.
H21 Astronomical Research Observatory, Westfield.  Observer R. Holmes.
    Measurers T. Linder, R. Holmes, L. Horn.  0.76-m f/3.0 astrograph + CCD.
I52 Steward Observatory, Mt. Lemmon Station.  Observers J. K. Hogan, G. J.
    Leonard.  Measurers T. Beuden, V. F. Carvajal, D. Fay, J. B. Fazekas, D.
    C. Fuls, A. R. Gibbs, A. D. Grauer, H. Groeller, J. K. Hogan, R. A.
    Kowalski, S. M. Larson, G. J. Leonard, D. Rankin, R. L. Seaman, F. C.
    Shelly, K. W. Wierzchos, D. Parrott.  1.0-m prime focus + CCD, 1.00-m
    f/2.0 prime focus + CCD + CCD.

Orbital elements:
2024 LR5                                                 Earth MOID = 0.0088 AU
Epoch 2024 Mar. 31.0 TT = JDT 2460400.5                 Veres                   
M 312.04479              (2000.0)            P               Q                  
n   0.57189672     Peri.   11.54204     +0.04098250     +0.99139088             
a   1.4374441      Node   260.89695     -0.92644344     -0.00890764             
e   0.2902025      Incl.    7.23520     -0.37419646     +0.13063218             
P   1.72           H   28.37          G   0.15           U   7                  
Residuals in seconds of arc
240615 G96 (0.7+  1.2+)   240615 I52  0.2+  0.0     240616 I52  0.2-  0.2-
240615 G96 (1.7-  1.4-)   240615 I52  0.2-  0.5+    240616 I52  0.8+  0.1+
240615 G96 (3.0-  2.8-)   240615 I52  0.2+  0.3-    240616 I52  0.1-  0.1-
240615 I52  0.0   0.0     240616 H21  0.3+  0.2+    240616 858  0.1-  0.1+
240615 I52  0.0   0.2-    240616 H21  0.2-  0.2+    240616 858  0.2+  0.0
240615 I52  0.1+  0.3+    240616 H21  0.2-  0.0     240616 858  0.2+  0.2-
240615 I52  0.0   0.4-    240616 H21  0.0   0.0     240616 858  0.3-  0.2+
240615 I52  0.1-  0.2+    240616 H21  0.3+  0.0

Ephemeris:
2024 LR5                 a,e,i = 1.44, 0.29, 7                   q = 1.0203
Date    TT    R. A. (2000) Decl.     Delta      r    Elong.  Phase     V
2024 05 17    11 55 38.0 -44 03 14   0.09588 1.0732   128.2    47.8    25.2
...
2024 06 01    12 13 17.4 -40 43 50   0.04648 1.0396   122.2    55.6    23.8
...
2024 06 09    13 13 18.6 -31 04 19   0.02108 1.0281   127.4    51.7    22.0
...
2024 06 15    16 34 25.1 +21 13 31   0.01012 1.0227   133.2    46.4    20.2
2024 06 16    17 32 07.6 +32 57 59   0.01117 1.0221   123.7    55.8    20.7
2024 06 17    18 27 13.1 +40 38 34   0.01302 1.0215   115.1    64.2    21.3
...
2024 06 23    21 17 49.1 +49 05 31   0.03012 1.0199    96.0    82.3    23.7
...
2024 07 01    22 12 51.9 +48 06 33   0.05553 1.0224    94.4    82.5    25.0
...
2024 07 16    22 38 26.2 +46 26 18   0.1013  1.0411   101.3    73.2    26.0

M. P. C. Staff               (C) Copyright 2024 MPC           M.P.E.C. 2024-M06





More information about the Iaude mailing list